WA9AFM Weather Reports


Display with metric or nautical units.
time (UTC)temp
F
wind
direction
speed
MPH
gust
MPH
rain 1hr
in
rain 24hr
in
rain mn
in
humidity
%
barometer
mb
20260509223321 87 324 1.0 7.0 0.00 0.30 0.02 41 1004.7
20260509222657 87 314 5.0 0.0 0.00 0.00 0.00 40 1003.3
20260509221817 87 305 0.0 8.0 0.00 0.30 0.02 39 1004.7
20260509221156 87 324 3.0 0.0 0.00 0.00 0.00 39 1003.3
20260509220317 88 311 2.0 6.0 0.00 0.30 0.02 40 1004.7
20260509215655 88 327 0.0 0.0 0.00 0.00 0.00 41 1003.3
20260509214820 87 343 1.0 5.0 0.00 0.30 0.02 40 1004.8
20260509213318 87 7 1.0 4.0 0.00 0.30 0.02 39 1004.9
20260509212656 87 315 1.0 0.0 0.00 0.00 0.00 38 1003.6
20260509211816 87 224 1.0 6.0 0.00 0.30 0.02 36 1005.2
20260509210316 87 307 1.0 4.0 0.00 0.30 0.02 40 1005.2
20260509205656 87 49 0.0 0.0 0.00 0.00 0.00 40 1003.9
20260509204819 87 334 2.0 7.0 0.00 0.30 0.02 39 1005.3
20260509203319 87 296 1.0 6.0 0.00 0.30 0.02 38 1005.4
20260509202656 87 180 0.0 0.0 0.00 0.00 0.00 37 1004.1
20260509201819 86 23 2.0 4.0 0.00 0.30 0.02 40 1005.8
20260509200322 86 213 1.0 5.0 0.00 0.30 0.02 39 1006.0
20260509195656 86 328 1.0 0.0 0.00 0.00 0.00 38 1004.6
20260509194822 86 230 1.0 2.0 0.00 0.30 0.02 37 1006.1
20260509193320 86 210 2.0 6.0 0.00 0.30 0.02 39 1006.2
20260509192655 85 225 3.0 0.0 0.00 0.00 0.00 37 1004.9
20260509191823 86 189 1.0 4.0 0.00 0.30 0.02 37 1006.4
20260509190320 85 321 1.0 3.0 0.00 0.30 0.02 37 1006.6
20260509185655 85 59 0.0 0.0 0.00 0.00 0.00 40 1005.2
20260509184818 85 325 2.0 4.0 0.00 0.30 0.02 41 1006.8
20260509183320 85 312 1.0 4.0 0.00 0.30 0.02 42 1006.8
20260509182656 85 324 0.0 0.0 0.00 0.00 0.00 37 1005.6
20260509181820 85 327 1.0 3.0 0.00 0.30 0.02 38 1007.2
20260509180340 84 310 2.0 6.0 0.00 0.30 0.02 39 1007.3
20260509175656 84 35 0.0 0.0 0.00 0.00 0.00 49 1006.0
20260509174817 83 58 0.0 3.0 0.00 0.30 0.02 46 1007.5
20260509173322 82 311 0.0 3.0 0.00 0.30 0.02 47 1007.7
20260509172657 81 71 0.0 0.0 0.00 0.00 0.00 51 1006.4
20260509171821 81 196 2.0 5.0 0.00 0.30 0.02 46 1007.7
20260509171156 81 322 0.0 0.0 0.00 0.00 0.00 49 1006.5
20260509170320 80 220 1.0 3.0 0.00 0.30 0.02 49 1007.9
20260509165655 80 253 1.0 0.0 0.00 0.00 0.00 47 1006.6
20260509164821 80 213 1.0 5.0 0.00 0.30 0.02 51 1008.0
20260509163322 79 286 1.0 3.0 0.00 0.30 0.02 58 1008.1
20260509162656 79 353 0.0 0.0 0.00 0.00 0.00 59 1006.9
20260509161835 78 327 0.0 5.0 0.00 0.30 0.02 63 1008.1
20260509160312 76 244 1.0 5.0 0.00 0.30 0.02 62 1008.1
20260509155656 76 329 3.0 0.0 0.00 0.00 0.00 66 1006.7
20260509154831 75 296 1.0 5.0 0.00 0.30 0.02 67 1008.0
20260509153324 74 330 1.0 4.0 0.00 0.30 0.02 69 1008.0
20260509152657 74 315 0.0 0.0 0.00 0.00 0.00 75 1006.7
20260509151823 73 329 1.0 4.0 0.00 0.30 0.02 78 1008.1
20260509151156 72 284 1.0 0.0 0.00 0.00 0.00 80 1006.6
20260509150321 71 310 0.0 4.0 0.01 0.30 0.02 86 1008.0
20260509145655 70 237 1.0 0.0 0.00 0.00 0.00 93 1006.6
20260509144821 68 236 0.0 3.0 0.01 0.30 0.02 97 1008.0
20260509144157 67 218 0.0 0.0 0.00 0.00 0.00 97 1006.6
20260509143340 68 329 0.0 3.0 0.01 0.30 0.02 98 1007.9
20260509142656 67 315 0.0 0.0 0.00 0.00 0.00 98 1006.7
20260509141818 67 317 0.0 1.0 0.01 0.30 0.02 98 1007.9
20260509141155 67 314 0.0 0.0 0.00 0.00 0.00 98 1006.7
20260509140341 67 315 0.0 0.0 0.00 0.29 0.01 98 1007.9
20260509135656 66 314 0.0 0.0 0.00 0.00 0.00 99 1006.5
20260509134839 65 313 0.0 0.0 0.00 0.29 0.01 99 1007.6
20260509134156 64 313 0.0 0.0 0.00 0.00 0.00 99 1006.3
20260509133318 64 314 0.0 0.0 0.00 0.29 0.01 99 1007.5
20260509132657 63 314 0.0 0.0 0.00 0.00 0.00 99 1006.3
20260509131818 62 315 0.0 0.0 0.01 0.29 0.01 99 1007.5
20260509130317 60 315 0.0 0.0 0.01 0.29 0.01 99 1007.3
20260509125655 58 315 0.0 0.0 0.00 0.00 0.00 99 1005.9
20260509124837 57 315 0.0 0.0 0.01 0.29 0.01 99 1007.0
20260509124157 56 315 0.0 0.0 0.00 0.00 0.00 98 1005.9
20260509123315 55 315 0.0 0.0 0.01 0.29 0.01 98 1007.1
20260509122655 55 315 0.0 0.0 0.00 0.00 0.00 98 1005.9
20260509121818 54 314 0.0 0.0 0.00 0.28 0.00 98 1007.0
20260509120316 53 314 0.0 0.0 0.00 0.28 0.00 98 1006.9
20260509115656 53 314 0.0 0.0 0.00 0.00 0.00 98 1005.7
20260509114813 54 314 0.0 0.0 0.00 0.28 0.00 98 1006.6
20260509113314 54 314 0.0 0.0 0.00 0.28 0.00 98 1006.3
20260509112657 54 314 0.0 0.0 0.00 0.00 0.00 98 1004.9
20260509111813 54 314 0.0 0.0 0.00 0.28 0.00 98 1006.1
20260509110312 54 314 0.0 0.0 0.00 0.28 0.00 98 1006.1
20260509105655 54 314 0.0 0.0 0.00 0.00 0.00 98 1004.9
20260509104815 55 314 0.0 0.0 0.00 0.28 0.00 98 1006.0
20260509103316 55 314 0.0 0.0 0.00 0.28 0.00 98 1006.1
20260509102655 55 314 0.0 0.0 0.00 0.00 0.00 98 1005.0
20260509101816 55 314 0.0 0.0 0.00 0.28 0.00 98 1006.3
20260509100315 56 314 0.0 0.0 0.00 0.28 0.00 98 1006.7
20260509095656 56 314 0.0 0.0 0.00 0.00 0.00 98 1005.6
20260509094819 56 314 0.0 0.0 0.00 0.28 0.00 98 1006.8
20260509094156 56 314 0.0 0.0 0.00 0.00 0.00 98 1005.7
20260509093316 56 314 0.0 0.0 0.00 0.28 0.00 98 1006.6
20260509092657 56 314 0.0 0.0 0.00 0.00 0.00 98 1005.4
20260509091816 57 314 0.0 1.0 0.00 0.28 0.00 98 1006.6
20260509090320 56 314 0.0 0.0 0.00 0.28 0.00 98 1006.5
20260509085655 56 314 0.0 0.0 0.00 0.00 0.00 98 1005.4
20260509084819 56 314 0.0 0.0 0.00 0.28 0.00 98 1006.5
20260509083318 57 317 0.0 0.0 0.00 0.28 0.00 98 1006.4
20260509082656 57 318 0.0 0.0 0.00 0.00 0.00 98 1005.4
20260509081822 57 318 0.0 0.0 0.00 0.28 0.00 98 1006.6
20260509080322 57 318 0.0 0.0 0.00 0.28 0.00 98 1006.8
20260509075656 57 318 0.0 0.0 0.00 0.00 0.00 98 1005.6
20260509074821 57 318 0.0 0.0 0.00 0.28 0.00 98 1007.0
20260509073326 58 317 0.0 0.0 0.00 0.28 0.00 98 1007.0
20260509072656 58 317 0.0 0.0 0.00 0.00 0.00 98 1005.8
20260509071823 58 317 0.0 0.0 0.00 0.28 0.00 98 1007.0
20260509070316 59 317 0.0 0.0 0.00 0.28 0.00 98 1007.1
20260509065655 59 317 0.0 0.0 0.00 0.00 0.00 98 1005.9
20260509064855 59 317 0.0 0.0 0.00 0.28 0.00 98 1007.1
20260509063317 59 317 0.0 0.0 0.00 0.28 0.00 98 1007.3
20260509062656 59 317 0.0 0.0 0.00 0.00 0.00 98 1006.2
20260509061833 60 318 0.0 0.0 0.00 0.28 0.00 98 1007.4
20260509061156 60 318 0.0 0.0 0.00 0.00 0.00 98 1006.2
20260509060318 60 317 0.0 0.0 0.00 0.28 0.00 98 1007.4
20260509055656 60 317 0.0 0.0 0.00 0.00 0.00 98 1006.3
20260509054817 60 314 0.0 1.0 0.00 0.28 0.00 98 1007.6
20260509054156 60 238 0.0 0.0 0.00 0.00 0.00 98 1006.1
20260509053319 61 237 0.0 2.0 0.00 0.28 0.00 98 1007.3
20260509052657 61 220 0.0 0.0 0.00 0.00 0.00 98 1006.0
20260509051817 61 223 1.0 5.0 0.00 0.28 0.00 98 1007.2
20260509050316 61 220 2.0 5.0 0.00 0.28 0.00 98 1007.1
20260509045655 61 215 1.0 0.0 0.00 0.00 0.00 98 1005.8
20260509044820 61 211 0.0 1.0 0.00 0.28 0.28 98 1007.0
20260509043317 60 211 0.0 1.0 0.00 0.28 0.28 98 1007.1
20260509042655 60 211 0.0 0.0 0.00 0.00 0.00 98 1005.9
20260509041837 60 211 0.0 1.0 0.00 0.28 0.28 98 1007.0
20260509041156 60 308 0.0 0.0 0.00 0.00 0.00 97 1005.9
20260509040336 61 308 0.0 0.0 0.00 0.28 0.28 98 1007.1
20260509035655 61 308 0.0 0.0 0.00 0.00 0.00 98 1005.6
20260509034818 61 308 0.0 3.0 0.00 0.28 0.28 98 1006.8
20260509033316 61 300 1.0 4.0 0.00 0.28 0.28 98 1006.8
20260509032656 61 234 0.0 0.0 0.00 0.00 0.00 98 1005.2
20260509031815 61 216 0.0 4.0 0.00 0.28 0.28 98 1006.2
20260509031155 60 323 1.0 0.0 0.00 0.00 0.00 97 1004.9
20260509030318 61 197 0.0 1.0 0.00 0.28 0.28 97 1005.9
20260509025656 61 197 0.0 0.0 0.00 0.00 0.00 97 1004.4
20260509024818 61 197 0.0 1.0 0.00 0.28 0.28 97 1005.6
20260509023317 61 197 0.0 3.0 0.00 0.28 0.28 97 1005.4
20260509022657 61 277 0.0 0.0 0.00 0.00 0.00 97 1003.7
20260509021817 61 277 0.0 0.0 0.00 0.28 0.28 97 1004.9
20260509021156 61 280 0.0 0.0 0.00 0.00 0.00 97 1003.6
20260509020321 61 116 0.0 0.0 0.00 0.28 0.28 97 1005.0
20260509015655 62 315 0.0 0.0 0.00 0.00 0.00 97 1003.5
20260509014820 62 321 0.0 1.0 0.00 0.28 0.28 97 1004.6
20260509013319 63 48 0.0 0.0 0.00 0.28 0.28 97 1004.4
20260509012656 63 48 0.0 0.0 0.00 0.00 0.00 97 1002.8
20260509011844 63 48 0.0 1.0 0.00 0.28 0.28 96 1004.1
20260509011155 63 48 0.0 0.0 0.00 0.00 0.00 96 1002.7
20260509010323 64 48 0.0 1.0 0.00 0.28 0.28 96 1004.1
20260509005656 64 45 0.0 0.0 0.00 0.00 0.00 96 1002.7
20260509004844 64 58 0.0 4.0 0.00 0.28 0.28 96 1004.0
20260509003341 64 92 0.0 2.0 0.01 0.28 0.28 96 1003.3
20260509002655 64 296 1.0 0.0 0.00 0.00 0.00 96 1001.9
20260509001824 64 333 0.0 1.0 0.01 0.28 0.28 96 1003.1
20260509000325 63 322 0.0 3.0 0.28 0.28 0.28 96 1003.2
20260508235655 63 303 0.0 0.0 0.00 0.00 0.00 96 1001.8
20260508234822 63 314 1.0 3.0 0.28 0.28 0.28 95 1003.4
20260508233326 63 57 0.0 1.0 0.27 0.27 0.27 92 1003.3
20260508232656 64 38 0.0 0.0 0.00 0.00 0.00 90 1001.8
20260508231820 67 77 0.0 11.0 0.27 0.27 0.27 80 1003.5
20260508230341 80 319 0.0 2.0 0.00 0.00 0.00 55 1003.1
20260508225656 80 321 0.0 0.0 0.00 0.00 0.00 54 1001.6
20260508224839 81 321 0.0 4.0 0.00 0.00 0.00 53 1002.6